When you browse on this site, cookies collect data to enhance your experience and personalize the content and advertising you see.
Visit our Privacy Policy to learn more. By continuing to use the site, you agree to this use of cookies and data.
  • In Österreich
  • Länderverzeichnis
  • Für 7 Tage
  • Wassertemperatur
  • Satellitenkarten
  • Wetterkarte
  • News
  • Widgets
  • user-avatar
    Anmelden

    Stündliche Wetter Copiague

    Heute, 20 April, Samstag

    Zeit Temperatur Niederschläge Wind Luftdruck Luftfeuchtigkeit
    00:00 +17°C° 1.1 mm 10 m/S 755 mmHg 91%
    01:00 +18°C° 1.1 mm 10 m/S 755 mmHg 92%
    02:00 +17°C° 2.6 mm 10 m/S 755 mmHg 93%
    03:00 +17°C° 2.6 mm 9 m/S 755 mmHg 93%
    04:00 +17°C° 2.6 mm 9 m/S 755 mmHg 94%
    05:00 +17°C° 4.2 mm 9 m/S 755 mmHg 93%
    06:00 +17°C° 4.2 mm 9 m/S 755 mmHg 93%
    07:00 +17°C° 4.2 mm 9 m/S 755 mmHg 93%
    08:00 +18°C° 4.1 mm 10 m/S 754 mmHg 91%
    09:00 +18°C° 4.1 mm 11 m/S 754 mmHg 90%
    10:00 +19°C° 4.1 mm 12 m/S 754 mmHg 89%
    11:00 +18°C° 1.2 mm 11 m/S 755 mmHg 87%
    12:00 +18°C° 1.2 mm 10 m/S 755 mmHg 86%
    13:00 +17°C° 1.2 mm 9 m/S 756 mmHg 85%
    14:00 +16°C° 0 mm 9 m/S 756 mmHg 83%
    15:00 +14°C° 0 mm 10 m/S 757 mmHg 81%
    16:00 +14°C° 0 mm 10 m/S 757 mmHg 79%
    17:00 +13°C° 0 mm 9 m/S 757 mmHg 79%
    18:00 +12°C° 0 mm 8 m/S 758 mmHg 79%
    19:00 +12°C° 0 mm 8 m/S 758 mmHg 78%
    20:00 +12°C° 0 mm 7 m/S 759 mmHg 77%
    21:00 +13°C° 0 mm 6 m/S 759 mmHg 76%
    22:00 +13°C° 0 mm 5 m/S 760 mmHg 75%
    23:00 +13°C° 0 mm 5 m/S 760 mmHg 76%

    Morgen, 21 April, Sonntag

    Zeit Temperatur Niederschläge Wind Luftdruck Luftfeuchtigkeit
    00:00 +13°C° 0 mm 4 m/S 760 mmHg 78%
    01:00 +13°C° 0 mm 4 m/S 760 mmHg 80%
    02:00 +13°C° 0 mm 4 m/S 760 mmHg 82%
    03:00 +13°C° 0 mm 4 m/S 760 mmHg 85%
    04:00 +13°C° 0 mm 4 m/S 760 mmHg 87%
    05:00 +13°C° 0 mm 3 m/S 760 mmHg 87%
    06:00 +13°C° 0 mm 3 m/S 760 mmHg 87%
    07:00 +13°C° 0 mm 3 m/S 760 mmHg 87%
    08:00 +13°C° 0.2 mm 3 m/S 761 mmHg 85%
    09:00 +14°C° 0.2 mm 3 m/S 761 mmHg 83%
    10:00 +14°C° 0.2 mm 3 m/S 761 mmHg 81%
    11:00 +14°C° 0.1 mm 3 m/S 761 mmHg 78%
    12:00 +16°C° 0.1 mm 3 m/S 761 mmHg 76%
    13:00 +16°C° 0.1 mm 3 m/S 761 mmHg 73%
    14:00 +17°C° 0 mm 3 m/S 761 mmHg 71%
    15:00 +17°C° 0 mm 3 m/S 761 mmHg 68%
    16:00 +17°C° 0 mm 4 m/S 761 mmHg 66%
    17:00 +16°C° 0 mm 3 m/S 761 mmHg 66%
    18:00 +14°C° 0 mm 3 m/S 761 mmHg 67%
    19:00 +14°C° 0 mm 3 m/S 762 mmHg 67%
    20:00 +15°C° 0 mm 2 m/S 762 mmHg 67%
    21:00 +14°C° 0 mm 2 m/S 762 mmHg 67%
    22:00 +14°C° 0 mm 2 m/S 763 mmHg 67%
    23:00 +14°C° 0 mm 2 m/S 762 mmHg 67%

    übermorgen, 22 April, Montag

    Zeit Temperatur Niederschläge Wind Luftdruck Luftfeuchtigkeit
    00:00 +13°C° 0 mm 2 m/S 762 mmHg 68%
    01:00 +13°C° 0 mm 1 m/S 762 mmHg 68%
    02:00 +13°C° 0 mm 1 m/S 762 mmHg 70%
    03:00 +13°C° 0 mm 1 m/S 761 mmHg 71%
    04:00 +12°C° 0 mm 1 m/S 761 mmHg 72%
    05:00 +13°C° 0 mm 1 m/S 762 mmHg 70%
    06:00 +13°C° 0 mm 1 m/S 762 mmHg 67%
    07:00 +14°C° 0 mm 1 m/S 762 mmHg 65%
    08:00 +16°C° 0 mm 1 m/S 762 mmHg 59%
    09:00 +16°C° 0 mm 0 m/S 762 mmHg 53%
    10:00 +18°C° 0 mm 0 m/S 762 mmHg 47%
    11:00 +21°C° 0 mm 1 m/S 762 mmHg 45%
    12:00 +21°C° 0 mm 2 m/S 762 mmHg 43%
    13:00 +21°C° 0 mm 2 m/S 762 mmHg 42%
    14:00 +21°C° 0 mm 3 m/S 761 mmHg 43%
    15:00 +21°C° 0 mm 3 m/S 761 mmHg 44%
    16:00 +20°C° 0 mm 4 m/S 761 mmHg 45%
    17:00 +20°C° 0 mm 4 m/S 761 mmHg 48%
    18:00 +19°C° 0 mm 4 m/S 761 mmHg 51%
    19:00 +18°C° 0 mm 4 m/S 761 mmHg 55%
    20:00 +18°C° 0 mm 3 m/S 762 mmHg 57%
    21:00 +18°C° 0 mm 3 m/S 762 mmHg 59%
    22:00 +18°C° 0 mm 3 m/S 762 mmHg 60%
    23:00 +17°C° 0 mm 3 m/S 762 mmHg 64%

    23 April, Dienstag

    Zeit Temperatur Niederschläge Wind Luftdruck Luftfeuchtigkeit
    00:00 +17°C° 0 mm 3 m/S 762 mmHg 68%
    01:00 +17°C° 0 mm 3 m/S 762 mmHg 72%
    02:00 +17°C° 0 mm 3 m/S 762 mmHg 73%
    03:00 +16°C° 0 mm 3 m/S 762 mmHg 75%
    04:00 +16°C° 0 mm 3 m/S 762 mmHg 77%
    05:00 +16°C° 0 mm 3 m/S 763 mmHg 75%
    06:00 +16°C° 0 mm 3 m/S 763 mmHg 73%
    07:00 +17°C° 0 mm 3 m/S 763 mmHg 72%
    08:00 +18°C° 0 mm 3 m/S 763 mmHg 66%
    09:00 +20°C° 0 mm 2 m/S 764 mmHg 61%
    10:00 +22°C° 0 mm 1 m/S 764 mmHg 55%
    11:00 +21°C° 0 mm 2 m/S 763 mmHg 53%
    12:00 +22°C° 0 mm 3 m/S 763 mmHg 51%
    13:00 +22°C° 0 mm 4 m/S 763 mmHg 49%
    14:00 +21°C° 0 mm 4 m/S 762 mmHg 53%
    15:00 +20°C° 0 mm 5 m/S 762 mmHg 56%
    16:00 +19°C° 0 mm 5 m/S 761 mmHg 59%
    17:00 +17°C° 0 mm 5 m/S 761 mmHg 63%
    18:00 +16°C° 0 mm 5 m/S 761 mmHg 68%
    19:00 +14°C° 0 mm 5 m/S 761 mmHg 72%
    20:00 +14°C° 0 mm 5 m/S 761 mmHg 73%
    21:00 +14°C° 0 mm 5 m/S 761 mmHg 75%
    22:00 +14°C° 0 mm 5 m/S 760 mmHg 76%
    23:00 +14°C° 0.1 mm 5 m/S 760 mmHg 77%

    24 April, Mittwoch

    Zeit Temperatur Niederschläge Wind Luftdruck Luftfeuchtigkeit
    00:00 +14°C° 0.1 mm 4 m/S 759 mmHg 77%
    01:00 +14°C° 0.1 mm 4 m/S 758 mmHg 78%
    02:00 +15°C° 0.6 mm 4 m/S 758 mmHg 78%
    03:00 +15°C° 0.6 mm 4 m/S 757 mmHg 78%
    04:00 +17°C° 0.6 mm 4 m/S 757 mmHg 78%
    05:00 +17°C° 0.1 mm 4 m/S 757 mmHg 77%
    06:00 +18°C° 0.1 mm 4 m/S 757 mmHg 76%
    07:00 +19°C° 0.1 mm 4 m/S 757 mmHg 75%
    08:00 +20°C° 0 mm 4 m/S 757 mmHg 69%
    09:00 +22°C° 0 mm 4 m/S 757 mmHg 63%
    10:00 +23°C° 0 mm 4 m/S 757 mmHg 56%
    11:00 +25°C° 0 mm 4 m/S 757 mmHg 53%
    12:00 +25°C° 0 mm 4 m/S 756 mmHg 50%
    13:00 +26°C° 0 mm 4 m/S 756 mmHg 47%
    14:00 +26°C° 0 mm 3 m/S 756 mmHg 44%
    15:00 +26°C° 0 mm 3 m/S 756 mmHg 41%
    16:00 +26°C° 0 mm 3 m/S 756 mmHg 38%
    17:00 +26°C° 0 mm 3 m/S 757 mmHg 40%
    18:00 +25°C° 0 mm 2 m/S 757 mmHg 41%
    19:00 +24°C° 0 mm 2 m/S 758 mmHg 42%
    20:00 +20°C° 0.1 mm 4 m/S 758 mmHg 51%
    21:00 +16°C° 0.1 mm 6 m/S 758 mmHg 61%
    22:00 +12°C° 0.1 mm 8 m/S 759 mmHg 70%
    23:00 +11°C° 0.5 mm 8 m/S 759 mmHg 71%

    25 April, Donnerstag

    Zeit Temperatur Niederschläge Wind Luftdruck Luftfeuchtigkeit
    00:00 +10°C° 0.5 mm 8 m/S 759 mmHg 73%
    01:00 +9°C° 0.5 mm 7 m/S 758 mmHg 75%
    02:00 +9°C° 0.2 mm 7 m/S 758 mmHg 76%
    03:00 +9°C° 0.2 mm 8 m/S 758 mmHg 77%
    04:00 +7°C° 0.2 mm 8 m/S 758 mmHg 79%
    05:00 +7°C° 0.7 mm 8 m/S 758 mmHg 80%
    06:00 +7°C° 0.7 mm 8 m/S 758 mmHg 81%
    07:00 +7°C° 0.7 mm 8 m/S 758 mmHg 82%
    08:00 +7°C° 0.6 mm 8 m/S 759 mmHg 82%
    09:00 +6°C° 0.6 mm 8 m/S 759 mmHg 81%
    10:00 +6°C° 0.6 mm 8 m/S 759 mmHg 81%
    11:00 +6°C° 0.4 mm 8 m/S 759 mmHg 81%
    12:00 +6°C° 0.4 mm 7 m/S 758 mmHg 80%
    13:00 +7°C° 0.4 mm 6 m/S 758 mmHg 80%
    14:00 +7°C° 0 mm 6 m/S 758 mmHg 79%
    15:00 +8°C° 0 mm 6 m/S 758 mmHg 78%
    16:00 +8°C° 0 mm 6 m/S 758 mmHg 77%
    17:00 +8°C° 0 mm 6 m/S 759 mmHg 78%
    18:00 +7°C° 0 mm 5 m/S 759 mmHg 80%
    19:00 +7°C° 0 mm 5 m/S 759 mmHg 81%
    20:00 +7°C° 0 mm 5 m/S 759 mmHg 81%
    21:00 +7°C° 0 mm 5 m/S 759 mmHg 82%
    22:00 +7°C° 0 mm 5 m/S 759 mmHg 82%
    23:00 +7°C° 0 mm 5 m/S 759 mmHg 83%
    Mehr zeigen